When you browse on this site, cookies collect data to enhance your experience and personalize the content and advertising you see.
Visit our Privacy Policy to learn more. By continuing to use the site, you agree to this use of cookies and data.
  • în România
  • Lista ţărilor
  • Pe 7 zile
  • Temperatura apei
  • Meteo pe hartă
  • Widget-uri
  • user-avatar
    Intrare

    Meteo pe oră la Salvador

    Astăzi, 28 Februarie, Vineri

    Timp Temperatura Precipitaţii Vânt Presiune Umiditate
    00:00 +27°C° 0 mm 3 m/s 755 mmHg 83%
    01:00 +27°C° 0 mm 3 m/s 755 mmHg 84%
    02:00 +27°C° 0 mm 3 m/s 755 mmHg 85%
    03:00 +27°C° 0 mm 3 m/s 755 mmHg 86%
    04:00 +27°C° 0 mm 3 m/s 755 mmHg 86%
    05:00 +27°C° 0 mm 2 m/s 755 mmHg 86%
    06:00 +27°C° 0 mm 2 m/s 755 mmHg 86%
    07:00 +28°C° 0 mm 2 m/s 756 mmHg 79%
    08:00 +29°C° 0 mm 1 m/s 756 mmHg 73%
    09:00 +31°C° 0 mm 1 m/s 757 mmHg 66%
    10:00 +31°C° 0 mm 2 m/s 757 mmHg 65%
    11:00 +31°C° 0 mm 2 m/s 756 mmHg 64%
    12:00 +33°C° 0 mm 3 m/s 756 mmHg 63%
    13:00 +33°C° 0 mm 4 m/s 755 mmHg 64%
    14:00 +33°C° 0 mm 4 m/s 754 mmHg 65%
    15:00 +33°C° 0 mm 5 m/s 754 mmHg 67%
    16:00 +32°C° 0 mm 5 m/s 754 mmHg 70%
    17:00 +30°C° 0 mm 5 m/s 754 mmHg 74%
    18:00 +29°C° 0 mm 6 m/s 754 mmHg 78%
    19:00 +29°C° 0 mm 6 m/s 755 mmHg 79%
    20:00 +29°C° 0 mm 5 m/s 756 mmHg 79%
    21:00 +29°C° 0 mm 5 m/s 756 mmHg 80%
    22:00 +28°C° 0 mm 5 m/s 756 mmHg 80%
    23:00 +28°C° 0 mm 5 m/s 756 mmHg 81%

    Mâine, 29 Februarie, Sâmbătă

    Timp Temperatura Precipitaţii Vânt Presiune Umiditate
    00:00 +28°C° 0 mm 4 m/s 756 mmHg 82%
    01:00 +28°C° 0.1 mm 4 m/s 756 mmHg 82%
    02:00 +27°C° 0.1 mm 4 m/s 756 mmHg 83%
    03:00 +27°C° 0.1 mm 3 m/s 755 mmHg 84%
    04:00 +27°C° 0 mm 3 m/s 756 mmHg 83%
    05:00 +27°C° 0 mm 3 m/s 756 mmHg 82%
    06:00 +27°C° 0 mm 2 m/s 756 mmHg 82%
    07:00 +28°C° 0 mm 2 m/s 756 mmHg 74%
    08:00 +30°C° 0 mm 2 m/s 757 mmHg 66%
    09:00 +31°C° 0 mm 2 m/s 757 mmHg 58%
    10:00 +31°C° 0 mm 2 m/s 757 mmHg 56%
    11:00 +33°C° 0 mm 3 m/s 756 mmHg 54%
    12:00 +33°C° 0 mm 3 m/s 756 mmHg 53%
    13:00 +33°C° 0 mm 4 m/s 755 mmHg 55%
    14:00 +32°C° 0 mm 4 m/s 754 mmHg 58%
    15:00 +32°C° 0 mm 5 m/s 754 mmHg 60%
    16:00 +30°C° 0 mm 5 m/s 754 mmHg 64%
    17:00 +30°C° 0 mm 5 m/s 754 mmHg 67%
    18:00 +29°C° 0 mm 5 m/s 754 mmHg 70%
    19:00 +29°C° 0 mm 4 m/s 754 mmHg 71%
    20:00 +28°C° 0 mm 4 m/s 755 mmHg 73%
    21:00 +28°C° 0 mm 4 m/s 756 mmHg 74%
    22:00 +28°C° 0.1 mm 4 m/s 756 mmHg 75%
    23:00 +28°C° 0.1 mm 4 m/s 755 mmHg 77%

    Poimâine, 1 Martie, Duminică

    Timp Temperatura Precipitaţii Vânt Presiune Umiditate
    00:00 +27°C° 0.1 mm 3 m/s 755 mmHg 79%
    01:00 +27°C° 0.3 mm 3 m/s 755 mmHg 80%
    02:00 +27°C° 0.3 mm 3 m/s 755 mmHg 81%
    03:00 +27°C° 0.3 mm 3 m/s 754 mmHg 82%
    04:00 +26°C° 0.3 mm 3 m/s 755 mmHg 83%
    05:00 +26°C° 0.3 mm 3 m/s 755 mmHg 85%
    06:00 +26°C° 0.3 mm 3 m/s 755 mmHg 86%
    07:00 +27°C° 0.2 mm 2 m/s 756 mmHg 82%
    08:00 +28°C° 0.2 mm 2 m/s 756 mmHg 79%
    09:00 +29°C° 0.2 mm 1 m/s 756 mmHg 75%
    10:00 +30°C° 0 mm 2 m/s 756 mmHg 68%
    11:00 +31°C° 0 mm 2 m/s 756 mmHg 62%
    12:00 +33°C° 0 mm 3 m/s 755 mmHg 55%
    13:00 +31°C° 0 mm 3 m/s 755 mmHg 56%
    14:00 +32°C° 0 mm 4 m/s 754 mmHg 56%
    15:00 +32°C° 0 mm 5 m/s 753 mmHg 57%
    16:00 +30°C° 0 mm 5 m/s 753 mmHg 61%
    17:00 +30°C° 0 mm 5 m/s 753 mmHg 65%
    18:00 +29°C° 0 mm 5 m/s 754 mmHg 69%
    19:00 +29°C° 0 mm 5 m/s 754 mmHg 70%
    20:00 +29°C° 0 mm 5 m/s 755 mmHg 71%
    21:00 +28°C° 0 mm 4 m/s 756 mmHg 73%
    22:00 +28°C° 0 mm 4 m/s 755 mmHg 74%
    23:00 +28°C° 0 mm 4 m/s 755 mmHg 75%

    2 Martie, Luni

    Timp Temperatura Precipitaţii Vânt Presiune Umiditate
    00:00 +28°C° 0 mm 4 m/s 755 mmHg 76%
    01:00 +27°C° 0 mm 4 m/s 755 mmHg 77%
    02:00 +27°C° 0 mm 3 m/s 754 mmHg 77%
    03:00 +27°C° 0 mm 3 m/s 754 mmHg 78%
    04:00 +27°C° 0 mm 3 m/s 754 mmHg 77%
    05:00 +27°C° 0 mm 3 m/s 754 mmHg 76%
    06:00 +27°C° 0 mm 3 m/s 754 mmHg 75%
    07:00 +28°C° 0 mm 2 m/s 755 mmHg 69%
    08:00 +29°C° 0 mm 2 m/s 755 mmHg 64%
    09:00 +31°C° 0 mm 2 m/s 756 mmHg 58%
    10:00 +31°C° 0 mm 2 m/s 755 mmHg 57%
    11:00 +31°C° 0 mm 3 m/s 755 mmHg 56%
    12:00 +33°C° 0 mm 3 m/s 755 mmHg 56%
    13:00 +32°C° 0 mm 4 m/s 754 mmHg 57%
    14:00 +32°C° 0 mm 4 m/s 753 mmHg 59%
    15:00 +32°C° 0 mm 5 m/s 753 mmHg 60%
    16:00 +30°C° 0 mm 5 m/s 753 mmHg 65%
    17:00 +30°C° 0 mm 5 m/s 753 mmHg 70%
    18:00 +29°C° 0 mm 5 m/s 753 mmHg 75%
    19:00 +29°C° 0 mm 5 m/s 753 mmHg 75%
    20:00 +28°C° 0 mm 5 m/s 754 mmHg 74%
    21:00 +28°C° 0 mm 5 m/s 755 mmHg 74%
    22:00 +28°C° 0 mm 5 m/s 755 mmHg 75%
    23:00 +28°C° 0 mm 5 m/s 755 mmHg 76%

    3 Martie, Marţi

    Timp Temperatura Precipitaţii Vânt Presiune Umiditate
    00:00 +28°C° 0 mm 5 m/s 755 mmHg 77%
    01:00 +27°C° 0 mm 5 m/s 754 mmHg 78%
    02:00 +27°C° 0 mm 4 m/s 754 mmHg 79%
    03:00 +27°C° 0 mm 4 m/s 754 mmHg 80%
    04:00 +27°C° 0 mm 3 m/s 754 mmHg 81%
    05:00 +27°C° 0 mm 3 m/s 754 mmHg 81%
    06:00 +27°C° 0 mm 3 m/s 754 mmHg 81%
    07:00 +28°C° 0.1 mm 2 m/s 755 mmHg 75%
    08:00 +29°C° 0.1 mm 2 m/s 755 mmHg 69%
    09:00 +31°C° 0.1 mm 1 m/s 756 mmHg 62%
    10:00 +31°C° 0.1 mm 2 m/s 755 mmHg 62%
    11:00 +31°C° 0.1 mm 3 m/s 755 mmHg 62%
    12:00 +32°C° 0.1 mm 4 m/s 755 mmHg 62%
    13:00 +32°C° 0 mm 4 m/s 754 mmHg 64%
    14:00 +32°C° 0 mm 5 m/s 754 mmHg 65%
    15:00 +32°C° 0 mm 5 m/s 753 mmHg 67%
    16:00 +32°C° 0 mm 5 m/s 753 mmHg 70%
    17:00 +30°C° 0 mm 5 m/s 753 mmHg 74%
    18:00 +29°C° 0 mm 5 m/s 753 mmHg 77%
    19:00 +29°C° 0 mm 5 m/s 754 mmHg 79%
    20:00 +29°C° 0 mm 5 m/s 754 mmHg 80%
    21:00 +29°C° 0 mm 5 m/s 755 mmHg 82%
    22:00 +28°C° 0.1 mm 5 m/s 755 mmHg 83%
    23:00 +28°C° 0.1 mm 5 m/s 755 mmHg 85%

    4 Martie, Miercuri

    Timp Temperatura Precipitaţii Vânt Presiune Umiditate
    00:00 +28°C° 0.1 mm 5 m/s 755 mmHg 86%
    01:00 +28°C° 0.1 mm 4 m/s 755 mmHg 87%
    02:00 +27°C° 0.1 mm 4 m/s 754 mmHg 88%
    03:00 +27°C° 0.1 mm 4 m/s 754 mmHg 89%
    04:00 +27°C° 0.4 mm 4 m/s 754 mmHg 89%
    05:00 +27°C° 0.4 mm 4 m/s 755 mmHg 90%
    06:00 +27°C° 0.4 mm 3 m/s 755 mmHg 90%
    07:00 +28°C° 0.2 mm 3 m/s 755 mmHg 82%
    08:00 +30°C° 0.2 mm 3 m/s 756 mmHg 75%
    09:00 +31°C° 0.2 mm 3 m/s 756 mmHg 67%
    10:00 +33°C° 0.1 mm 3 m/s 756 mmHg 66%
    11:00 +33°C° 0.1 mm 4 m/s 755 mmHg 64%
    12:00 +33°C° 0.1 mm 5 m/s 755 mmHg 63%
    13:00 +33°C° 0.1 mm 5 m/s 754 mmHg 64%
    14:00 +33°C° 0.1 mm 6 m/s 754 mmHg 65%
    15:00 +33°C° 0.1 mm 6 m/s 753 mmHg 67%
    16:00 +32°C° 0 mm 6 m/s 753 mmHg 70%
    17:00 +32°C° 0 mm 7 m/s 753 mmHg 74%
    18:00 +30°C° 0 mm 7 m/s 753 mmHg 78%
    19:00 +29°C° 0 mm 6 m/s 754 mmHg 79%
    20:00 +29°C° 0 mm 6 m/s 754 mmHg 81%
    21:00 +29°C° 0 mm 6 m/s 755 mmHg 82%
    22:00 +29°C° 0 mm 6 m/s 755 mmHg 83%
    23:00 +28°C° 0 mm 5 m/s 755 mmHg 84%
    Arată mai mult